Vorticity
4 8 11 10 11 9 6 6 9 9 7 6 8 6 12 11 4 2 6 9 7 7 9 9 7 8 6 2 5 6 -2 18 9 10 13 4 15 9 0 9 6 4 2 -6
4 4 11 10 11 7 10 8 8 10 9 6 8 7 8 8 7 9 9 8 6 9 9 6 8 6 4 4 2 1 6 -7 16 17 16 16 3 0 -18 8 24 15 -2 -15
6 4 5 9 9 10 9 9 12 8 7 6 13 12 10 9 8 10 11 12 10 9 7 8 9 4 7 2 5 2 18 10 3 -9 -10 -4 3 13 8 -1 10 4 -32 -18
6 6 5 3 5 6 11 6 13 5 17 4 10 10 11 8 7 9 8 9 6 8 6 5 6 9 7 7 9 8 7 6 11 11 9 14 16 13 7 8 14 -5 -5 10
7 6 6 7 6 4 7 3 14 13 27 11 5 8 8 8 7 9 8 10 5 4 6 7 6 6 7 14 4 1 8 8 0 12 15 8 0 13 53 54 10 7 12 -7
6 7 6 6 7 9 10 8 6 10 14 11 12 8 11 6 6 7 6 6 8 6 6 7 5 9 11 4 9 9 12 18 0 13 8 -8 41 12 -13 -17 12 15 7 6
8 8 6 6 5 6 7 9 11 9 12 7 7 9 5 7 6 5 5 4 7 9 7 4 7 10 11 5 5 15 8 12 17 -1 20 23 -2 -29 3 32 -0 -4 6 12
7 8 7 6 6 6 8 7 8 8 8 12 7 6 6 7 7 6 6 7 6 8 5 9 22 7 26 -3 20 0 12 12 7 6 9 -15 34 34 -3 -13 10 7 23 2
6 7 7 7 6 6 7 7 7 7 7 11 8 8 8 8 7 7 5 6 7 6 4 9 12 7 -9 20 3 1 12 11 17 12 5 7 -13 -6 21 17 16 -3 -11 26
6 6 6 6 6 6 6 6 6 7 7 6 11 11 7 10 8 4 9 6 7 8 6 8 14 13 -2 8 5 -4 6 9 10 21 -4 13 8 33 8 28 -16 -28 -7 -4
7 7 6 6 7 7 7 6 7 7 8 7 9 10 8 9 7 7 7 11 11 13 16 15 13 13 12 16 2 -11 -1 13 1 31 19 33 -25 -17 -2 -7 -5 11 26 13
7 7 7 7 7 7 7 7 6 7 8 4 17 9 6 10 9 9 8 4 -9 -13 -3 -8 7 -9 -4 5 -11 11 10 6 -7 -9 -35 -22 2 -5 23 24 8 14 -1 41
7 6 7 7 7 7 7 7 6 7 6 8 9 4 6 12 10 7 7 5 6 3 5 7 6 7 11 -1 1 6 -0 13 5 25 10 14 25 2 5 10 -9 -3 7 16
6 5 5 7 7 7 8 9 9 9 8 3 -4 -1 17 18 6 3 4 6 5 2 5 8 6 12 19 12 -14 -19 15 -2 20 11 12 -3 11 13 -3 12 41 16 1 23
8 8 7 8 8 8 7 7 6 7 8 -8 12 22 29 18 -1 13 20 3 -4 -5 11 10 11 14 14 -2 -2 18 37 -1 15 -9 30 -4 6 4 2 44 -12 18 25 10
11 10 9 8 9 10 9 7 7 9 8 8 7 19 12 15 -1 -1 12 17 -8 11 15 13 11 14 11 30 50 -13 6 7 3 13 27 4 -4 33 21 -5 12 12 12 13
5 2 7 8 8 9 10 4 11 10 13 10 24 35 33 25 22 22 21 22 20 -7 7 14 23 18 27 30 -30 5 8 12 14 22 7 1 19 5 12 10 14 19 17 -1
18 12 10 6 11 9 9 7 7 5 4 3 15 -6 17 6 -3 -3 11 3 -2 5 12 20 12 13 15 12 21 15 7 15 19 -9 5 24 13 6 15 15 14 8 -13 -1
1 -0 5 -0 7 7 5 10 4 27 -14 13 1 19 23 32 3 3 31 17 5 23 12 8 17 21 -1 6 -12 7 15 5 6 18 21 9 6 11 15 2 -4 -1 2 1
6 25 9 10 9 5 14 1 1 2 9 14 7 -26 -2 -2 16 25 21 21 15 7 14 22 27 5 -10 0 24 13 7 18 14 7 11 8 7 -1 -2 0 -4 -2 0 6
12 -3 6 10 11 18 -4 4 22 21 19 41 17 27 -1 18 31 9 6 10 9 22 28 9 22 10 21 19 15 9 10 10 8 7 9 7 3 7 6 3 -1 10 26 20
28 2 26 13 26 33 8 43 14 26 18 13 32 30 36 20 14 3 11 20 22 3 21 15 23 7 19 22 12 9 12 12 5 9 -4 8 9 3 -3 12 25 16 14 9
52 48 53 17 26 13 13 16 12 17 1 -1 -1 -4 7 20 21 24 4 15 14 19 13 -0 -8 10 12 10 13 16 14 11 -3 4 6 3 1 12 25 17 13 11 10 11
1 7 13 7 19 19 9 -4 13 1 -7 -1 -1 7 15 19 19 13 6 12 10 11 14 1 13 15 14 17 6 3 5 -2 -0 1 3 14 23 13 15 12 10 11 13 8
-4 9 11 17 10 2 7 11 9 11 15 18 14 10 12 14 6 17 10 13 14 9 4 12 10 7 7 3 3 3 -1 -2 4 15 16 11 15 13 11 10 11 12 10 12
2 8 11 22 22 15 12 10 11 13 14 17 16 12 15 20 9 17 7 3 -3 -5 10 15 9 1 3 0 -3 -1 7 15 12 16 20 17 12 9 11 11 14 11 8 12
2 7 2 2 0 5 10 11 13 15 12 13 10 15 4 14 15 11 8 2 8 13 14 1 0 -6 -7 7 13 15 12 17 21 16 10 13 9 10 10 10 7 20 9 12
Height
3106 3108 3110 3111 3113 3116 3120 3122 3125 3127 3130 3134 3135 3138 3140 3142 3144 3147 3148 3150 3151 3152 3154 3155 3156 3158 3158 3158 3158 3158 3157 3155 3154 3155 3154 3153 3153 3153 3153 3154 3155 3154 3153 3142
3106 3108 3110 3112 3113 3116 3119 3122 3125 3127 3130 3132 3134 3136 3139 3141 3143 3145 3147 3149 3150 3151 3153 3155 3156 3157 3158 3158 3158 3157 3156 3154 3154 3153 3155 3153 3152 3151 3151 3151 3150 3148 3149 3138
3106 3108 3110 3112 3114 3116 3119 3122 3124 3127 3129 3131 3133 3135 3137 3139 3142 3145 3146 3148 3150 3151 3152 3154 3155 3156 3156 3156 3156 3155 3154 3154 3154 3154 3153 3151 3148 3147 3146 3147 3146 3143 3136 3132
3105 3107 3110 3112 3114 3116 3119 3121 3123 3125 3127 3130 3132 3135 3137 3139 3141 3144 3146 3147 3149 3151 3152 3153 3153 3154 3154 3154 3153 3152 3152 3151 3150 3149 3148 3145 3141 3140 3140 3138 3137 3137 3130 3128
3103 3106 3109 3111 3114 3116 3118 3121 3122 3124 3126 3129 3131 3134 3136 3139 3141 3143 3145 3146 3148 3149 3150 3152 3152 3152 3152 3152 3151 3150 3149 3148 3146 3143 3144 3141 3136 3134 3130 3130 3131 3128 3126 3121
3101 3104 3107 3110 3112 3115 3116 3118 3121 3123 3126 3128 3131 3133 3135 3138 3140 3142 3144 3145 3147 3148 3149 3149 3149 3150 3150 3150 3148 3147 3146 3145 3143 3140 3139 3138 3131 3127 3127 3127 3125 3123 3120 3117
3099 3102 3105 3108 3110 3113 3115 3117 3120 3122 3125 3128 3130 3132 3135 3136 3139 3141 3142 3143 3145 3146 3146 3147 3147 3147 3146 3146 3145 3144 3143 3141 3140 3137 3136 3136 3125 3124 3123 3120 3120 3118 3114 3112
3096 3099 3103 3106 3109 3111 3114 3116 3119 3120 3123 3126 3128 3130 3133 3135 3137 3139 3140 3141 3143 3143 3144 3144 3144 3143 3143 3142 3141 3141 3140 3139 3136 3135 3132 3129 3118 3119 3118 3114 3111 3112 3108 3106
3092 3096 3100 3103 3106 3109 3112 3114 3116 3119 3122 3124 3126 3128 3130 3132 3134 3136 3137 3138 3139 3140 3141 3142 3141 3141 3140 3139 3138 3137 3136 3136 3135 3132 3131 3124 3116 3116 3113 3109 3104 3104 3104 3101
3088 3092 3096 3100 3103 3106 3109 3111 3114 3117 3119 3121 3124 3126 3127 3129 3131 3133 3134 3135 3136 3138 3138 3138 3138 3137 3137 3136 3134 3133 3134 3131 3129 3127 3124 3116 3112 3111 3110 3109 3106 3096 3094 3091
3084 3089 3093 3097 3100 3103 3106 3109 3111 3114 3117 3119 3121 3122 3124 3125 3127 3129 3131 3133 3132 3133 3134 3134 3133 3132 3132 3130 3130 3130 3131 3128 3126 3121 3120 3112 3109 3109 3108 3104 3096 3091 3086 3082
3080 3084 3089 3093 3096 3099 3102 3106 3108 3111 3114 3116 3117 3118 3120 3121 3123 3125 3126 3128 3128 3129 3129 3130 3128 3128 3126 3126 3125 3126 3123 3122 3122 3120 3112 3109 3106 3102 3099 3093 3087 3082 3079 3073
3075 3080 3085 3088 3092 3095 3099 3102 3104 3107 3110 3112 3113 3114 3116 3117 3118 3120 3122 3122 3123 3124 3124 3124 3123 3121 3119 3119 3117 3118 3115 3114 3110 3108 3103 3101 3100 3096 3089 3084 3079 3075 3070 3065
3070 3075 3079 3084 3087 3090 3094 3097 3100 3103 3105 3107 3108 3109 3110 3112 3113 3114 3116 3117 3118 3118 3118 3116 3114 3114 3110 3108 3109 3109 3110 3105 3101 3096 3095 3092 3090 3084 3081 3076 3072 3067 3062 3056
3065 3069 3074 3078 3082 3086 3089 3092 3094 3096 3102 3100 3102 3103 3105 3107 3107 3108 3110 3111 3112 3111 3110 3107 3105 3105 3104 3100 3099 3096 3098 3097 3094 3088 3088 3084 3078 3073 3072 3067 3062 3058 3054 3051
3059 3064 3068 3072 3077 3080 3083 3086 3088 3091 3093 3095 3096 3096 3098 3100 3102 3103 3102 3104 3104 3103 3101 3098 3097 3098 3099 3092 3087 3087 3092 3089 3087 3082 3079 3076 3070 3069 3064 3059 3054 3051 3049 3045
3053 3058 3063 3067 3071 3074 3078 3081 3083 3085 3087 3088 3088 3086 3088 3091 3094 3096 3096 3096 3095 3094 3092 3088 3089 3090 3091 3083 3081 3084 3082 3079 3077 3075 3072 3069 3066 3061 3058 3054 3052 3048 3044 3039
3048 3053 3058 3062 3064 3068 3070 3073 3076 3079 3082 3082 3080 3078 3082 3083 3086 3088 3089 3087 3087 3083 3082 3081 3082 3083 3082 3076 3075 3075 3073 3070 3069 3067 3065 3061 3058 3055 3052 3049 3044 3040 3037 3032
3042 3048 3051 3055 3057 3059 3062 3069 3072 3073 3077 3073 3069 3070 3074 3075 3079 3080 3079 3078 3077 3077 3075 3075 3075 3071 3070 3069 3069 3067 3067 3066 3063 3060 3057 3055 3051 3048 3046 3042 3038 3033 3027 3020
3033 3038 3043 3044 3048 3053 3058 3063 3064 3065 3064 3062 3061 3063 3067 3072 3071 3071 3074 3071 3071 3068 3067 3068 3064 3061 3062 3062 3059 3057 3057 3057 3055 3054 3052 3049 3046 3042 3038 3034 3029 3023 3017 3011
3022 3026 3031 3036 3041 3045 3048 3051 3052 3054 3053 3053 3053 3058 3061 3063 3066 3066 3065 3063 3064 3061 3060 3061 3055 3053 3056 3054 3054 3053 3051 3051 3050 3048 3046 3043 3039 3035 3030 3026 3022 3016 3009 3003
3014 3020 3025 3029 3032 3035 3040 3039 3042 3041 3044 3046 3049 3053 3056 3059 3059 3060 3060 3060 3059 3055 3053 3053 3049 3050 3049 3048 3047 3047 3047 3046 3044 3043 3041 3037 3033 3028 3022 3016 3010 3004 2999 2994
3010 3014 3016 3019 3023 3026 3029 3029 3032 3035 3037 3042 3044 3049 3052 3053 3054 3055 3055 3054 3051 3050 3049 3046 3045 3044 3044 3044 3045 3044 3042 3041 3039 3038 3034 3029 3024 3019 3012 3006 3000 2994 2989 2985
3008 3010 3013 3016 3018 3022 3024 3029 3032 3034 3036 3039 3042 3045 3047 3046 3048 3048 3048 3047 3047 3045 3043 3041 3040 3040 3040 3040 3041 3039 3037 3035 3033 3029 3024 3018 3013 3008 3004 2998 2991 2985 2980 2976
3009 3012 3014 3016 3018 3020 3024 3028 3029 3031 3033 3035 3038 3039 3041 3042 3043 3042 3041 3041 3040 3039 3037 3036 3037 3037 3037 3037 3034 3033 3031 3027 3023 3019 3014 3009 3004 2999 2995 2991 2984 2978 2973 2967
3010 3013 3015 3017 3019 3021 3023 3025 3027 3029 3029 3031 3033 3034 3036 3037 3037 3035 3035 3036 3033 3033 3032 3032 3034 3034 3033 3031 3029 3026 3022 3018 3014 3009 3004 3000 2996 2991 2987 2983 2978 2972 2966 2959
3008 3012 3013 3016 3019 3020 3021 3023 3024 3026 3027 3028 3030 3030 3031 3030 3030 3031 3030 3029 3028 3027 3027 3028 3029 3027 3026 3024 3021 3017 3013 3010 3005 3001 2997 2993 2989 2984 2980 2976 2971 2965 2959 2953